Date String (YYYY-MM-DD hh:mm:ss) UTC,Instrument flags,absolute air pressure of the measurement (hPa),sample flow rate (lpm),inlet stack bypass flow (lpm),air temperature of the measurement (°C),ambient temperature measured by the external sensor (°C),aerosol sample conditioner tube jacket temperature (°C),OPC LED temperature (°C),internal box temperature (°C),relative humidity of the measurement (%),span deviation,mass concentration of particles derived from Lorenz-Mie calculation of OPC scattering (μg/m³),mass concentration of particles derived from Lorenz-Mie calculation of OPC scattering (μg/m³),mass concentration of particles derived from Lorenz-Mie calculation of OPC scattering (μg/m³)
DateTimeUTC,F1_M11,P_M11,Q1_M11,Q2_M11,T1_M11,T2_M11,T3_M11,T4_M11,T5_M11,U1_M11,ZSPAN_M11,X0_M11,X2_M11,X1_M11
2023-12-06 09:00:00,SystemResetWarning,0834.7,5.00,000.00,024.6,023.6,000.0,032.9,025.9,13.7,0000.0,0001.54,0000.77,0000.56
2023-12-06 09:01:00,SystemResetWarning,0834.7,5.00,000.00,024.6,023.6,000.0,032.9,025.9,13.5,0000.0,0001.56,0000.79,0000.57
2023-12-06 09:02:00,SystemResetWarning,0834.7,5.00,000.00,024.6,023.6,000.0,032.9,025.9,13.4,0000.0,0001.45,0000.78,0000.56
2023-12-06 09:03:00,SystemResetWarning,0834.7,5.00,000.00,024.6,023.6,000.0,032.9,025.9,13.4,0000.0,0001.69,0000.96,0000.75
2023-12-06 09:04:00,SystemResetWarning,0834.7,5.00,000.00,024.6,023.6,000.0,032.9,025.9,13.3,0000.0,0002.57,0001.52,0001.27
2023-12-06 09:05:00,SystemResetWarning,0834.7,5.00,000.00,024.6,023.6,000.0,032.9,025.9,13.3,0000.0,0004.49,0001.96,0001.68
2023-12-06 09:06:00,SystemResetWarning,0834.7,5.01,000.00,024.6,023.6,000.0,032.9,025.9,13.3,0000.0,0005.00,0002.42,0002.10
2023-12-06 09:07:00,SystemResetWarning,0834.7,5.00,000.00,024.6,023.6,000.0,032.9,025.9,13.2,0000.0,0005.52,0002.88,0002.49
2023-12-06 09:08:00,SystemResetWarning,0834.8,5.00,000.00,024.5,023.6,000.0,032.9,025.9,13.2,0000.0,0005.79,0003.13,0002.80
2023-12-06 09:09:00,SystemResetWarning,0834.8,5.00,000.00,024.5,023.6,000.0,032.9,025.8,13.2,0000.0,0006.06,0003.25,0002.99
2023-12-06 09:10:00,SystemResetWarning,0834.7,5.00,000.00,024.5,023.6,000.0,032.9,025.8,13.2,0000.0,0006.53,0003.30,0003.05
2023-12-06 09:11:00,SystemResetWarning,0834.7,5.00,000.00,024.5,023.6,000.0,032.9,025.7,13.2,0000.0,0007.06,0003.31,0003.07
2023-12-06 09:12:00,SystemResetWarning,0834.8,5.00,000.00,024.5,023.6,000.0,032.9,025.8,13.2,0000.0,0007.07,0003.31,0003.07
2023-12-06 09:13:00,SystemResetWarning,0835.1,5.01,000.00,024.5,023.6,000.0,032.9,025.8,13.2,0000.0,0007.25,0003.30,0003.08
2023-12-06 09:14:00,SystemResetWarning,0835.0,4.99,000.00,024.5,023.6,000.0,032.9,025.8,13.2,0000.0,0007.31,0003.27,0003.02
2023-12-06 09:15:00,SystemResetWarning,0835.1,5.00,000.00,024.5,023.6,000.0,032.9,025.8,13.2,0000.0,0006.79,0002.95,0002.58
2023-12-06 09:16:00,SystemResetWarning,0835.1,5.00,000.00,024.5,023.5,000.0,032.9,025.8,13.1,0000.0,0004.96,0002.42,0002.08
2023-12-06 09:17:00,SystemResetWarning,0835.1,5.00,000.00,024.5,023.5,000.0,032.9,025.8,13.1,0000.0,0004.05,0001.98,0001.64
2023-12-06 09:18:00,SystemResetWarning,0835.3,5.00,000.00,024.5,023.5,000.0,032.9,025.8,13.1,0000.0,0003.44,0001.50,0001.22
2023-12-06 09:19:00,SystemResetWarning,0835.2,4.99,000.00,024.5,023.5,000.0,032.9,025.7,13.1,0000.0,0003.19,0001.19,0000.91
2023-12-06 09:20:00,SystemResetWarning,0835.1,4.99,000.00,024.5,023.5,000.0,032.9,025.7,13.2,0000.0,0002.88,0000.96,0000.68
2023-12-06 09:21:00,SystemResetWarning,0834.9,5.01,000.00,024.5,023.5,000.0,032.9,025.7,13.0,0000.0,0002.49,0000.86,0000.59
2023-12-06 09:22:00,SystemResetWarning,0834.7,5.00,000.00,024.4,023.5,000.0,032.9,025.7,13.1,0000.0,0001.88,0000.84,0000.56
2023-12-06 09:23:00,SystemResetWarning,0834.6,5.00,000.00,024.4,023.5,000.0,032.9,025.7,13.3,0000.0,0001.83,0000.83,0000.55
2023-12-06 09:24:00,SystemResetWarning,0834.6,5.00,000.00,024.4,023.5,000.0,032.9,025.7,13.3,0000.0,0001.66,0000.81,0000.55
2023-12-06 09:25:00,SystemResetWarning,0834.6,5.00,000.00,024.5,023.5,000.0,032.9,025.8,13.2,0000.0,0001.48,0000.81,0000.53
2023-12-06 09:26:00,SystemResetWarning,0834.9,5.00,000.00,024.5,023.5,000.0,032.8,025.7,13.3,0000.0,0001.56,0000.83,0000.52
2023-12-06 09:27:00,SystemResetWarning,0835.1,5.00,000.00,024.5,023.5,000.0,032.8,025.8,13.1,0000.0,0001.85,0000.81,0000.51
2023-12-06 09:28:00,SystemResetWarning,0835.1,5.00,000.00,024.5,023.6,000.0,032.8,025.8,13.1,0000.0,0002.33,0000.78,0000.51
2023-12-06 09:29:00,SystemResetWarning,0834.8,5.00,000.00,024.5,023.6,000.0,032.8,025.7,12.8,0000.0,0002.31,0000.79,0000.52
2023-12-06 09:30:00,SystemResetWarning,0834.8,5.00,000.00,024.5,023.6,000.0,032.8,025.7,12.4,0000.0,0002.23,0000.79,0000.53
2023-12-06 09:31:00,SystemResetWarning,0834.7,5.00,000.00,024.5,023.6,000.0,032.8,025.8,12.3,0000.0,0002.16,0000.77,0000.52
2023-12-06 09:32:00,SystemResetWarning,0834.7,4.99,000.00,024.5,023.6,000.0,032.8,025.7,12.3,0000.0,0002.36,0000.81,0000.53
2023-12-06 09:33:00,SystemResetWarning,0835.1,4.99,000.00,024.5,023.6,000.0,032.8,025.8,12.5,0000.0,0002.28,0000.77,0000.54
2023-12-06 09:34:00,SystemResetWarning,0835.2,4.99,000.00,024.5,023.6,000.0,032.8,025.8,12.4,0000.0,0002.53,0000.79,0000.54
2023-12-06 09:35:00,SystemResetWarning,0834.9,5.01,000.00,024.5,023.6,000.0,032.8,025.8,12.4,0000.0,0003.96,0000.81,0000.55
2023-12-06 09:36:00,SystemResetWarning,0834.6,5.00,000.00,024.5,023.6,000.0,032.8,025.8,12.5,0000.0,0003.93,0000.80,0000.55
2023-12-06 09:37:00,SystemResetWarning,0834.7,5.00,000.00,024.5,023.6,000.0,032.8,025.9,12.5,0000.0,0004.08,0000.76,0000.56
2023-12-06 09:38:00,SystemResetWarning,0835.1,5.00,000.00,024.5,023.6,000.0,032.8,025.8,12.5,0000.0,0004.50,0000.75,0000.56
2023-12-06 09:39:00,SystemResetWarning,0835.0,5.00,000.00,024.5,023.6,000.0,032.8,025.8,12.3,0000.0,0003.66,0000.73,0000.54
2023-12-06 09:40:00,SystemResetWarning,0834.6,5.00,000.00,024.5,023.6,000.0,032.8,025.8,12.4,0000.0,0003.61,0000.72,0000.52
2023-12-06 09:41:00,SystemResetWarning,0834.5,5.00,000.00,024.5,023.6,000.0,032.8,025.7,12.4,0000.0,0003.55,0000.68,0000.49
2023-12-06 09:42:00,SystemResetWarning,0834.5,5.00,000.00,024.5,023.6,000.0,032.8,025.8,12.4,0000.0,0003.49,0000.63,0000.46
2023-12-06 09:43:00,SystemResetWarning,0834.5,5.00,000.00,024.5,023.5,000.0,032.8,025.8,12.3,0000.0,0003.22,0000.56,0000.43
2023-12-06 09:44:00,SystemResetWarning,0834.5,5.00,000.00,024.5,023.5,000.0,032.8,025.7,12.2,0000.0,0003.11,0000.50,0000.39
2023-12-06 09:45:00,SystemResetWarning,0834.5,4.99,000.00,024.5,023.5,000.0,032.8,025.7,12.2,0000.0,0003.00,0000.45,0000.36
2023-12-06 09:46:00,SystemResetWarning,0834.5,4.99,000.00,024.5,023.5,000.0,032.8,025.7,12.3,0000.0,0001.67,0000.42,0000.33
2023-12-06 09:47:00,SystemResetWarning,0834.5,5.00,000.00,024.5,023.5,000.0,032.8,025.7,12.3,0000.0,0001.25,0000.38,0000.31
2023-12-06 09:48:00,SystemResetWarning,0834.5,4.99,000.00,024.4,023.5,000.0,032.8,025.7,12.2,0000.0,0001.07,0000.36,0000.28
2023-12-06 09:49:00,SystemResetWarning,0834.5,5.00,000.00,024.4,023.5,000.0,032.8,025.7,12.1,0000.0,0000.49,0000.34,0000.26
2023-12-06 09:50:00,SystemResetWarning,0834.5,5.00,000.00,024.4,023.5,000.0,032.8,025.7,11.9,0000.0,0000.49,0000.33,0000.26
2023-12-06 09:51:00,SystemResetWarning,0834.5,5.01,000.00,024.4,023.5,000.0,032.8,025.7,12.0,0000.0,0000.41,0000.30,0000.25
2023-12-06 09:52:00,SystemResetWarning,0834.5,5.00,000.00,024.4,023.4,000.0,032.8,025.6,12.0,0000.0,0000.37,0000.28,0000.24
2023-12-06 09:53:00,SystemResetWarning,0834.4,5.00,000.00,024.4,023.4,000.0,032.8,025.6,12.5,0000.0,0000.37,0000.28,0000.24
2023-12-06 09:54:00,SystemResetWarning,0834.4,5.00,000.00,024.4,023.4,000.0,032.8,025.6,12.5,0000.0,0000.37,0000.27,0000.24
2023-12-06 09:55:00,SystemResetWarning,0834.3,5.00,000.00,024.4,023.3,000.0,032.8,025.6,12.2,0000.0,0000.36,0000.27,0000.23
2023-12-06 09:56:00,SystemResetWarning,0834.3,5.00,000.00,024.3,023.3,000.0,032.8,025.6,12.2,0000.0,0000.34,0000.25,0000.22
2023-12-06 09:57:00,SystemResetWarning,0834.3,5.00,000.00,024.3,023.3,000.0,032.8,025.6,12.2,0000.0,0000.29,0000.22,0000.20
2023-12-06 09:58:00,SystemResetWarning,0834.3,4.99,000.00,024.3,023.3,000.0,032.8,025.6,12.1,0000.0,0000.23,0000.19,0000.19
2023-12-06 09:59:00,SystemResetWarning,0834.4,5.00,000.00,024.3,023.3,000.0,032.8,025.6,12.1,0000.0,0000.24,0000.19,0000.18
